This is the latest recevied weather packets stored in our database for station/object IU0SZS-10. If no packets are shown the sender has not sent any weather packets the latest 10 day(s).
| Time | Temp. | Humidity | Pressure | Rain* | Wind** | Luminosity | Snow |
|---|---|---|---|---|---|---|---|
| 1777339654 | 11.67° C | 60% | 917.5 hPa | - | - | - | - |
| 1777338754 | 11.67° C | 59% | 917.5 hPa | - | - | - | - |
| 1777337853 | 11.67° C | 58% | 917.7 hPa | - | - | - | - |
| 1777336953 | 11.67° C | 59% | 917.8 hPa | - | - | - | - |
| 1777336053 | 12.22° C | 61% | 917.9 hPa | - | - | - | - |
| 1777335153 | 12.22° C | 61% | 918 hPa | - | - | - | - |
| 1777334253 | 12.22° C | 61% | 917.9 hPa | - | - | - | - |
| 1777333353 | 12.78° C | 60% | 918 hPa | - | - | - | - |
| 1777332452 | 12.22° C | 60% | 918 hPa | - | - | - | - |
| 1777331552 | 12.78° C | 59% | 918 hPa | - | - | - | - |
| 1777330652 | 12.78° C | 58% | 917.9 hPa | - | - | - | - |
| 1777329752 | 12.78° C | 54% | 918 hPa | - | - | - | - |
| 1777328852 | 13.33° C | 49% | 918 hPa | - | - | - | - |
| 1777327952 | 13.89° C | 49% | 918 hPa | - | - | - | - |
| 1777327051 | 14.44° C | 48% | 918 hPa | - | - | - | - |
| 1777326151 | 14.44° C | 48% | 917.9 hPa | - | - | - | - |
| 1777325251 | 14.44° C | 48% | 918 hPa | - | - | - | - |
| 1777324351 | 15° C | 48% | 918 hPa | - | - | - | - |
| 1777323451 | 15° C | 48% | 917.9 hPa | - | - | - | - |
| 1777322550 | 15° C | 47% | 917.9 hPa | - | - | - | - |
| 1777321650 | 15.56° C | 45% | 918 hPa | - | - | - | - |
| 1777320750 | 15.56° C | 44% | 918 hPa | - | - | - | - |
| 1777319850 | 15.56° C | 40% | 918.1 hPa | - | - | - | - |
| 1777318950 | 16.11° C | 40% | 918.2 hPa | - | - | - | - |
| 1777318050 | 16.11° C | 39% | 918.1 hPa | - | - | - | - |
* Rain since midnight (hover to see other rain measurements)
** Current wind speed in m/s (hover to see current wind gust speed)